Dumas, TX

7:46 AM CST on November 23, 2017 (GMT -0600)
Moore County

Weather History for KDUX - April, 2013

Change the Weather History Date:

Friday, April 12, 2013

  Actual Average (KDHT) Record (KDHT)
Temperature  
Mean Temperature 51 °F -  
Max Temperature 70 °F 65 °F 90 °F (1971)
Min Temperature 33 °F 35 °F 17 °F (1997)
Degree Days  
Heating Degree Days 14    
Growing Degree Days 1 (Base 50)    
Moisture  
Dew Point 27 °F    
Average Humidity 46    
Maximum Humidity 72    
Minimum Humidity 20    
Precipitation  
Precipitation 0.00 in - - ()
Sea Level Pressure  
Sea Level Pressure 29.92 in    
Wind  
Wind Speed 7 mph (ESE)    
Max Wind Speed 20 mph    
Max Gust Speed 28 mph    
Visibility 10 miles    
Events      
Averages and records for this station are not official NWS values.
T = Trace of Precipitation, MM = Missing Value Source: NWS Daily Summary

Daily Weather History Graph

Daily Weather History Graph

Search for Another Location

Airport or City:

Trip Planner

Search our weather history database for the weather conditions in past years. The results will help you decide how hot, cold, wet, or windy it might be!

Date:

Astronomy

Apr. 12, 2013 Rise Set
Actual Time 7:18 AM CDT 8:19 PM CDT
Civil Twilight 6:52 AM CDT 8:45 PM CDT
Nautical Twilight 6:21 AM CDT 9:16 PM CDT
Astronomical Twilight 5:49 AM CDT 9:49 PM CDT
Moon 8:34 AM CDT (4/12) 10:46 PM CDT (4/12)
Length of Visible Light 13h 53m
Length of Day
13h 00m
Waxing Crescent, 5% of the Moon is Illuminated
Apr 12
Waxing Crescent
Apr 18
First Quarter
Apr 25
Full
May 2
Last Quarter
May 9
New

Hourly Weather History & Observations

Time (CDT) Temp. Windchill Dew Point Humidity Pressure Visibility Wind Dir Wind Speed Gust Speed Precip Events Conditions
12:15 AM 42.8 °F 38.6 °F 25.7 °F 51% 29.91 in 10.0 mi NE 6.9 mph - N/A   Clear
12:35 AM 41.7 °F 38.0 °F 25.5 °F 53% 29.91 in 10.0 mi NE 5.8 mph - N/A   Clear
12:55 AM 40.6 °F 36.7 °F 25.5 °F 55% 29.92 in 10.0 mi NE 5.8 mph - N/A   Clear
1:15 AM 40.1 °F 38.0 °F 25.2 °F 55% 29.93 in 10.0 mi NNE 3.5 mph - N/A   Clear
1:35 AM 39.0 °F 35.7 °F 25.2 °F 58% 29.93 in 10.0 mi NE 4.6 mph - N/A   Clear
1:55 AM 38.3 °F 34.8 °F 24.8 °F 58% 29.93 in 10.0 mi NE 4.6 mph - N/A   Clear
2:15 AM 38.5 °F 35.0 °F 25.2 °F 59% 29.93 in 10.0 mi NE 4.6 mph - N/A   Clear
2:35 AM 38.8 °F 34.6 °F 25.5 °F 59% 29.93 in 10.0 mi NE 5.8 mph - N/A   Clear
2:55 AM 38.8 °F 35.4 °F 25.0 °F 58% 29.93 in 10.0 mi NE 4.6 mph - N/A   Clear
3:15 AM 34.7 °F 30.6 °F 23.7 °F 64% 29.93 in 10.0 mi NNE 4.6 mph - N/A   Clear
3:35 AM 33.1 °F - 23.2 °F 67% 29.94 in 10.0 mi Calm Calm - N/A   Clear
3:55 AM 35.8 °F - 24.4 °F 63% 29.94 in 10.0 mi Calm Calm - N/A   Clear
4:15 AM 33.3 °F 28.9 °F 23.5 °F 68% 29.95 in 10.0 mi NNE 4.6 mph - N/A   Clear
4:35 AM 35.8 °F 31.9 °F 24.8 °F 64% 29.94 in 10.0 mi North 4.6 mph - N/A   Clear
4:55 AM 35.8 °F 31.9 °F 24.6 °F 64% 29.95 in 10.0 mi North 4.6 mph - N/A   Clear
5:15 AM 35.6 °F 30.7 °F 24.8 °F 65% 29.95 in 10.0 mi North 5.8 mph - N/A   Clear
5:35 AM 34.7 °F 28.1 °F 25.2 °F 68% 29.94 in 10.0 mi NNE 8.1 mph - N/A   Clear
5:55 AM 34.5 °F - 24.4 °F 67% 29.95 in 10.0 mi Calm Calm - N/A   Clear
6:15 AM 35.8 °F 33.0 °F 25.3 °F 66% 29.95 in 10.0 mi NNE 3.5 mph - N/A   Clear
6:35 AM 34.5 °F 31.6 °F 25.0 °F 68% 29.95 in 10.0 mi North 3.5 mph - N/A   Clear
6:55 AM 34.0 °F 31.0 °F 25.2 °F 70% 29.96 in 10.0 mi North 3.5 mph - N/A   Clear
7:15 AM 35.1 °F - 26.2 °F 70% 29.96 in 10.0 mi Calm Calm - N/A   Clear
7:35 AM 35.6 °F 32.8 °F 26.6 °F 70% 29.97 in 10.0 mi NNE 3.5 mph - N/A   Clear
7:55 AM 35.4 °F 32.6 °F 26.6 °F 70% 29.98 in 10.0 mi North 3.5 mph - N/A   Clear
8:15 AM 34.7 °F 31.8 °F 26.6 °F 72% 29.98 in 10.0 mi North 3.5 mph - N/A   Clear
8:35 AM 37.2 °F - 28.4 °F 70% 29.98 in 10.0 mi Calm Calm - N/A   Clear
8:55 AM 39.2 °F - 28.9 °F 67% 29.98 in 10.0 mi Calm Calm - N/A   Clear
9:15 AM 40.6 °F - 30.4 °F 67% 29.98 in 10.0 mi Calm Calm - N/A   Clear
9:55 AM 47.3 °F - 30.0 °F 51% 30.00 in 10.0 mi East 5.8 mph - N/A   Clear
10:15 AM 48.6 °F - 30.0 °F 49% 30.00 in 10.0 mi ESE 5.8 mph - N/A   Clear
10:35 AM 49.8 °F - 29.8 °F 46% 30.00 in 10.0 mi ESE 5.8 mph - N/A   Clear
10:55 AM 51.3 °F - 29.5 °F 43% 30.00 in 10.0 mi SE 4.6 mph - N/A   Clear
11:35 AM 54.1 °F - 29.7 °F 39% 29.98 in 10.0 mi SE 9.2 mph - N/A   Clear
11:55 AM 55.0 °F - 29.1 °F 37% 29.98 in 10.0 mi SE 11.5 mph 16.1 mph N/A   Clear
12:15 PM 56.7 °F - 28.6 °F 34% 29.97 in 10.0 mi SE 12.7 mph 17.3 mph N/A   Clear
12:35 PM 57.0 °F - 28.8 °F 34% 29.97 in 10.0 mi SE 10.4 mph - N/A   Clear
12:55 PM 59.4 °F - 25.7 °F 28% 29.97 in 10.0 mi SE 16.1 mph 20.7 mph N/A   Clear
1:15 PM 59.0 °F - 26.6 °F 29% 29.96 in 10.0 mi SE 13.8 mph 20.7 mph N/A   Clear
1:35 PM 59.5 °F - 26.2 °F 28% 29.95 in 10.0 mi SSE 10.4 mph 18.4 mph N/A   Clear
1:55 PM 61.7 °F - 27.0 °F 27% 29.94 in 10.0 mi SSE 11.5 mph 21.9 mph N/A   Clear
2:15 PM 63.7 °F - 27.3 °F 25% 29.93 in 10.0 mi SE 16.1 mph 27.6 mph N/A   Clear
2:35 PM 64.2 °F - 26.6 °F 24% 29.91 in 10.0 mi SSE 11.5 mph - N/A   Clear
2:55 PM 65.8 °F - 25.2 °F 21% 29.91 in 10.0 mi South 13.8 mph 21.9 mph N/A   Clear
3:35 PM 66.9 °F - 26.4 °F 22% 29.90 in 10.0 mi SW 19.6 mph 27.6 mph N/A   Clear
3:55 PM 65.8 °F - 26.1 °F 22% 29.88 in 10.0 mi SSE 9.2 mph - N/A   Clear
4:15 PM 67.3 °F - 25.7 °F 21% 29.87 in 10.0 mi SSW 10.4 mph 19.6 mph N/A   Clear
4:35 PM 68.4 °F - 26.1 °F 20% 29.86 in 10.0 mi South 9.2 mph 17.3 mph N/A   Clear
4:55 PM 68.9 °F - 26.1 °F 20% 29.86 in 10.0 mi SSW 11.5 mph 20.7 mph N/A   Clear
5:15 PM 68.9 °F - 26.4 °F 20% 29.85 in 10.0 mi South 5.8 mph 18.4 mph N/A   Clear
5:35 PM 68.7 °F - 26.4 °F 20% 29.84 in 10.0 mi South 12.7 mph 16.1 mph N/A   Clear
5:55 PM 69.8 °F - 27.0 °F 20% 29.83 in 10.0 mi South 8.1 mph 18.4 mph N/A   Clear
6:15 PM 68.9 °F - 27.1 °F 21% 29.83 in 10.0 mi SSE 11.5 mph 18.4 mph N/A   Clear
6:35 PM 67.6 °F - 28.4 °F 23% 29.83 in 10.0 mi SE 15.0 mph - N/A   Clear
6:55 PM 66.6 °F - 28.2 °F 24% 29.83 in 10.0 mi SSE 15.0 mph - N/A   Clear
7:15 PM 64.9 °F - 28.2 °F 25% 29.83 in 10.0 mi SSE 16.1 mph 23.0 mph N/A   Clear
7:35 PM 62.6 °F - 28.4 °F 27% 29.83 in 10.0 mi SE 19.6 mph - N/A   Clear
7:55 PM 60.8 °F - 28.9 °F 30% 29.84 in 10.0 mi SE 15.0 mph - N/A   Clear
8:15 PM 59.0 °F - 28.8 °F 32% 29.85 in 10.0 mi SE 13.8 mph - N/A   Clear
8:35 PM 57.0 °F - 28.9 °F 34% 29.85 in 10.0 mi SE 15.0 mph - N/A   Clear
8:55 PM 55.8 °F - 29.1 °F 36% 29.86 in 10.0 mi SE 16.1 mph - N/A   Clear
9:15 PM 54.7 °F - 28.9 °F 37% 29.87 in 10.0 mi SE 13.8 mph - N/A   Clear
9:35 PM 53.2 °F - 29.3 °F 40% 29.88 in 10.0 mi SE 13.8 mph - N/A   Clear
9:55 PM 52.3 °F - 29.8 °F 42% 29.89 in 10.0 mi SE 12.7 mph - N/A   Clear
10:15 PM 52.5 °F - 31.1 °F 44% 29.91 in 10.0 mi SE 13.8 mph - N/A   Clear
10:35 PM 51.8 °F - 32.0 °F 47% 29.92 in 10.0 mi ESE 12.7 mph 17.3 mph N/A   Clear
10:55 PM 51.1 °F - 32.4 °F 49% 29.93 in 10.0 mi ESE 13.8 mph - N/A   Clear
11:15 PM 50.0 °F - 32.9 °F 52% 29.93 in 10.0 mi ESE 12.7 mph - N/A   Clear
11:35 PM 49.5 °F - 34.2 °F 56% 29.95 in 10.0 mi East 10.4 mph - N/A   Clear
11:55 PM 48.6 °F - 34.5 °F 58% 29.96 in 10.0 mi East 10.4 mph - N/A   Clear